Location: Greenwich
(51.4790°N, 0.0090°E)
Time: 21:21:33
(UTC+01:00)

Transit 2A Rocket - All Passes

Search period start: 17 June 2025 00:00
Search period end: 27 June 2025 00:00
Orbit: 590 x 896 km, 66.7° (Epoch: 17 June)

Date Brightness Start Highest point End Pass type
(mag) Time Alt. Az. Time Alt. Az. Time Alt. Az.
17 Jun - 04:48:27 10° S 04:52:04 27° ESE 04:55:44 10° ENE daylight
17 Jun - 06:30:02 10° WSW 06:34:11 48° NW 06:38:29 10° NNE daylight
17 Jun - 08:14:55 10° WNW 08:17:39 16° NNW 08:20:26 10° NNE daylight
17 Jun - 09:59:58 10° NNW 10:01:55 12° N 10:03:54 10° NNE daylight
17 Jun - 11:42:09 10° NNW 11:45:56 24° NNE 11:49:56 10° E daylight
17 Jun - 13:24:07 10° NW 13:28:53 88° NE 13:34:06 10° SE daylight
17 Jun - 15:07:32 10° WNW 15:10:45 18° WSW 15:14:08 10° SSW daylight
18 Jun - 04:04:42 10° SE 04:07:13 15° ESE 04:09:45 10° ENE daylight
18 Jun - 05:44:38 10° SW 05:48:55 80° NW 05:53:21 10° NE daylight
18 Jun - 07:28:44 10° WNW 07:32:00 20° NNW 07:35:22 10° NNE daylight
18 Jun - 09:14:19 10° NNW 09:16:07 12° N 09:17:58 10° NNE daylight
18 Jun - 10:57:07 10° NNW 11:00:20 18° NNE 11:03:43 10° ENE daylight
18 Jun - 12:38:59 10° NNW 12:43:39 56° NE 12:48:43 10° SE daylight
18 Jun - 14:21:39 10° NW 14:25:50 29° WSW 14:30:19 10° S daylight
19 Jun - 04:59:34 10° SSW 05:03:47 59° ESE 05:08:07 10° NE daylight
19 Jun - 06:42:43 10° W 06:46:27 28° NW 06:50:19 10° NNE daylight
19 Jun - 08:28:17 10° NW 08:30:21 13° N 08:32:27 10° NNE daylight
19 Jun - 10:12:02 10° NNW 10:14:40 15° NNE 10:17:23 10° NE daylight
19 Jun - 11:53:54 10° NNW 11:58:18 37° NE 12:03:02 10° ESE daylight
19 Jun - 13:36:10 10° NW 13:40:48 48° WSW 13:45:51 10° SSE daylight
20 Jun - 04:14:56 10° S 04:18:45 33° ESE 04:22:41 10° NE daylight
20 Jun - 05:56:57 10° WSW 06:01:01 41° NW 06:05:15 10° NNE daylight
20 Jun - 07:42:03 10° NW 07:44:36 15° NNW 07:47:14 10° NNE daylight
20 Jun - 09:26:47 10° NNW 09:28:54 13° N 09:31:05 10° NE daylight
20 Jun - 11:08:52 10° NNW 11:12:50 26° NE 11:17:05 10° E daylight
20 Jun - 12:50:53 10° NW 12:55:41 80° SW 13:00:56 10° SSE daylight
20 Jun - 14:34:42 10° WNW 14:37:26 15° WSW 14:40:17 10° SW daylight
21 Jun - 03:30:52 10° SSE 03:33:52 19° ESE 03:36:54 10° ENE visible
21 Jun - 05:11:26 10° SW 05:15:42 67° NW 05:20:08 10° NE daylight
21 Jun - 06:55:49 10° WNW 06:58:55 19° NNW 07:02:08 10° NNE daylight
21 Jun - 08:41:16 10° NNW 08:43:07 12° N 08:45:01 10° NNE daylight
21 Jun - 10:23:49 10° NNW 10:27:17 20° NNE 10:30:55 10° ENE daylight
21 Jun - 12:05:43 10° NW 12:10:28 66° NE 12:15:39 10° SE daylight
21 Jun - 13:48:34 10° WNW 13:52:33 25° WSW 13:56:47 10° SSW daylight
22 Jun - 02:48:53 10° ESE 02:49:05 10° ESE 02:49:16 10° ESE visible
22 Jun - 04:26:16 10° SSW 04:30:31 72° SE 04:34:55 10° NE daylight
22 Jun - 06:09:44 10° W 06:13:20 25° NNW 06:17:05 10° NNE daylight
22 Jun - 07:55:20 10° NNW 07:57:19 13° N 07:59:21 10° NNE daylight
22 Jun - 09:38:44 10° NNW 09:41:37 16° NNE 09:44:37 10° ENE daylight
22 Jun - 11:20:37 10° NNW 11:25:09 43° NE 11:30:03 10° ESE daylight
22 Jun - 13:02:59 10° NW 13:07:33 41° WSW 13:12:29 10° S daylight
23 Jun - 03:41:28 10° S 03:45:27 40° ESE 03:49:34 10° NE visible
23 Jun - 05:23:53 10° WSW 05:27:52 36° NW 05:32:00 10° NNE daylight
23 Jun - 07:09:09 10° NW 07:11:33 14° NNW 07:14:02 10° NNE daylight
23 Jun - 08:53:33 10° NNW 08:55:53 14° NNE 08:58:18 10° NE daylight
23 Jun - 10:35:34 10° NNW 10:39:44 30° NE 10:44:12 10° E daylight
23 Jun - 12:17:39 10° NW 12:22:27 68° SW 12:27:42 10° SSE daylight
23 Jun - 14:02:05 10° W 14:04:05 12° WSW 14:06:09 10° SW daylight
24 Jun - 02:57:10 10° SSE 03:00:31 23° ESE 03:03:57 10° ENE visible
24 Jun - 04:38:16 10° SW 04:42:30 56° NW 04:46:54 10° NNE daylight
24 Jun - 06:22:54 10° WNW 06:25:51 17° NNW 06:28:54 10° NNE daylight
24 Jun - 08:08:08 10° NNW 08:10:06 12° N 08:12:07 10° NNE daylight
24 Jun - 09:50:31 10° NNW 09:54:12 22° NNE 09:58:06 10° E daylight
24 Jun - 11:32:27 10° NW 11:37:16 77° NE 11:42:33 10° SE daylight
24 Jun - 13:15:33 10° WNW 13:19:14 21° WSW 13:23:09 10° SSW daylight
25 Jun - 02:13:50 10° SE 02:15:42 13° ESE 02:17:35 10° E visible
25 Jun - 03:52:59 10° SW 03:57:16 86° SE 04:01:44 10° NE visible
25 Jun - 05:36:46 10° W 05:40:13 22° NNW 05:43:49 10° NNE daylight
25 Jun - 07:22:21 10° NNW 07:24:18 12° N 07:26:18 10° NNE daylight
25 Jun - 09:05:27 10° NNW 09:08:34 17° NNE 09:11:49 10° ENE daylight
25 Jun - 10:47:20 10° NNW 10:51:59 49° NE 10:57:03 10° ESE daylight
25 Jun - 12:29:50 10° NW 12:34:17 35° WSW 12:39:04 10° S daylight
26 Jun - 03:08:02 10° SSW 03:12:10 49° ESE 03:16:26 10° NE visible
26 Jun - 04:50:50 10° W 04:54:42 31° NW 04:58:45 10° NNE daylight
26 Jun - 06:36:14 10° NW 06:38:31 14° NNW 06:40:53 10° NNE daylight
26 Jun - 08:20:18 10° NNW 08:22:51 14° NNE 08:25:30 10° NE daylight
26 Jun - 10:02:15 10° NNW 10:06:36 34° NE 10:11:16 10° ESE daylight
26 Jun - 11:44:26 10° NW 11:49:13 57° WSW 11:54:26 10° SSE daylight
26 Jun - 13:30:29 10° WSW 13:30:44 10° WSW 13:31:00 10° WSW daylight
